OBJECT B, 67647

Orbit data source: Space-Track

You're viewing an Uncataloged Satellite

Recently launched and/or uncataloged satellites may have evolving metadata. Metadata may include but not limited to: Owner, Maufacturer, Bus, Motor, and Mission.

OBJECT B, 67647 is a satellite owned by CASC (CN) in SSO that was launched on Sat, 31 Jan 2026 UTC launched from the Jiuquan Satellite Launch Center, China (JSC). Unknown objects in Earth's orbit typically refer to objects detected orbiting the Earth but have not yet been identified or cataloged. These objects could be anything from previously untracked satellites, spent rocket stages, debris from satellite collisions, or even natural meteoroids temporarily captured by Earth's gravity.

Loading next visibility...
Identifier
67647, 2026-021B
Orbit
SSO
Country
Flag of CNCN / PRC
Related business
Manufacturer
CALT
Mission
Spacecraft
Bus & Motor
CZ-2 STAGE 2, Unknown motor
Mass
~3,800 kg wet, ~3,800 kg dry
Launch date (UTC)
2026-01-31 (5 months ago)
Launch vehicle
Unknown
Launch site
Jiuquan Satellite Launch Center, China (JSC)
Object type
Unknown
Shape & HBR
Cyl, 3.1 m
Radar Cross Section
23.715 m², Large (>1 m²)

Expand to show TLE details & history
Last TLE update: 14 hours ago

TLE from 14 hours ago
0 OBJECT B
1 67647U 26021B   26171.25340646  .00008083  00000-0  23074-3 0  9996
2 67647  97.6427 248.9861 0144034  11.7649 348.6894 15.26514115 21331
Epoch: 2026-06-20T06:04Z
TLE epoch observation values (Epoch: 2026-06-20T06:04:54.318Z)
Latitude
-0.00006°
Longitude
-110.7109°
Altitude
392.42 km
Speed
7.729 km/s
True Right ascension
16h 35m 56s
True Declination
0° 00' 00"
Sunlit
Object was in full shadow at epoch
Visualization orbit readout
Latitude
Unknown
Longitude
Unknown
Altitude
Unknown
Speed
Unknown
Apparent Right ascension
Unknown
Apparent Declination
Unknown
Sunlit
N/A
Visualization observer readout
Local Sidereal Time
07:21:28
Azimuth
Unknown
Elevation
Unknown
Doppler factor
Unknown
Orbital elements
Apogee altitude
582.036 km
Perigee altitude
384.382 km
Semi-major axis
6,861.346 km
Eccentricity
0.0144
Inclination
97.6427°
RAAN
248.9861°
Arg. of periapsis
11.7649°
True anomaly
348.35988°
Mean anomaly
348.6894°
Eccentric anomaly
348.52523°
Mean motion
3.81882 °/min
Orbital period
94.27 mins
BSTAR
0.00023074
Loading maneuver chart data...
Computing Atmospheric mass density...
Loading historical data...
Loading historical data...
Loading historical data...
Loading historical data...
Loading historical data...
Loading historical data...
Loading historical data...
Other satellites on launch #21 in the year 2026 (2026-01-31 UTC)

Documentation

Showing up to 5 results
|